Location: Biltmore Gardens
(41.6070°N, 83.4666°W)
Time: 16:48:15
(UTC+00:00)

ISS - Visible Passes

Search period start: 08 March 2021 00:00
Search period end: 18 March 2021 00:00
Orbit: 417 x 422 km, 51.6° (Epoch: 08 March)

Date Brightness Start Highest point End Pass type
(mag) Time Alt. Az. Time Alt. Az. Time Alt. Az.
08 Mar -0.7 09:25:03 14° NE 09:25:03 14° NE 09:26:09 10° NE visible
08 Mar -2.9 10:58:01 10° NW 11:01:18 47° NNE 11:04:33 10° ESE visible
09 Mar -2.2 10:12:34 25° NNW 10:13:43 32° NNE 10:16:47 10° E visible
10 Mar -1.1 09:27:12 20° NE 09:27:12 20° NE 09:28:55 10° ENE visible
10 Mar -3.7 11:00:11 13° WNW 11:03:08 64° SW 11:06:28 10° SE visible
11 Mar -3.7 10:14:57 51° NW 10:15:40 76° NE 10:19:00 10° ESE visible
12 Mar -1.4 09:29:53 23° E 09:29:53 23° E 09:31:23 10° ESE visible
12 Mar -2.3 11:02:53 14° W 11:04:44 22° SW 11:07:22 10° S visible
13 Mar -2.8 10:18:00 33° SSW 10:18:00 33° SSW 10:20:29 10° SSE visible
17 Mar -1.7 00:36:38 10° SSE 00:38:12 13° SE 00:38:12 13° SE visible
